Weather History for KBZN - March, 2013

Change the Weather History Date:

Sunday, March 3, 2013

  Actual Average Record
Temperature  
Mean Temperature 34 °F 32 °F  
Max Temperature 45 °F 45 °F 64 °F (1994)
Min Temperature 23 °F 19 °F -27 °F (1976)
Degree Days  
Heating Degree Days 31 33  
Month to date heating degree days 85 101  
Since 1 July heating degree days 5817 5681  
Cooling Degree Days 0 0  
Month to date cooling degree days 0 0  
Year to date cooling degree days 0 0  
Moisture  
Dew Point 24 °F    
Average Humidity 57    
Maximum Humidity 82    
Minimum Humidity 32    
Precipitation  
Precipitation 0.02 in 0.03 in 0.43 in (1982)
Month to date precipitation 0.02 0.07  
Year to date precipitation 0.33 0.98  
Snow  
Snow 0.00 in 0.30 in 4.20 in (1982)
Month to date snowfall 0.0 0.7  
Since 1 July snowfall 17.9 23.0  
Snow Depth 4.00 in    
Sea Level Pressure  
Sea Level Pressure 29.81 in    
Wind  
Wind Speed 11 mph (NNW)    
Max Wind Speed 33 mph    
Max Gust Speed 41 mph    
Visibility 7 miles    
Events Rain , Snow    
T = Trace of Precipitation, MM = Missing Value Source: NWS Daily Summary

Daily Weather History Graph

Daily Weather History Graph

Search for Another Location

Airport or City:

Trip Planner

Search our weather history database for the weather conditions in past years. The results will help you decide how hot, cold, wet, or windy it might be!

Date:

Astronomy

Mar. 03, 2013 Rise Set
Actual Time 6:59 AM MST 6:14 PM MST
Civil Twilight 6:29 AM MST 6:44 PM MST
Nautical Twilight 5:54 AM MST 7:18 PM MST
Astronomical Twilight 5:20 AM MST 7:53 PM MST
Moon 12:16 AM MST 9:56 AM MST
Length of Visible Light 12h 15m
Length of Day
11h 15m
Waning Gibbous, 63% of the Moon is Illuminated
Mar 3
Waning Gibbous
Mar 4
Last Quarter
Mar 11
New
Mar 19
First Quarter
Mar 27
Full

Hourly Weather History & Observations

Time (MST) Temp. Windchill Dew Point Humidity Pressure Visibility Wind Dir Wind Speed Gust Speed Precip Events Conditions
12:56 AM 37.9 °F - 28.9 °F 70% 29.89 in 10.0 mi Calm Calm - N/A   Overcast
1:56 AM 39.0 °F - 28.0 °F 65% 29.88 in 10.0 mi Calm Calm - N/A   Mostly Cloudy
2:56 AM 39.0 °F 34.0 °F 28.0 °F 65% 29.83 in 10.0 mi NE 6.9 mph - N/A   Overcast
3:56 AM 37.0 °F 32.4 °F 28.9 °F 73% 29.81 in 10.0 mi East 5.8 mph - N/A   Overcast
4:56 AM 41.0 °F 39.0 °F 28.0 °F 60% 29.78 in 10.0 mi ESE 3.5 mph - N/A   Overcast
5:56 AM 39.9 °F 35.8 °F 28.9 °F 65% 29.76 in 10.0 mi NE 5.8 mph - N/A   Overcast
6:56 AM 39.0 °F 33.4 °F 28.9 °F 67% 29.76 in 10.0 mi ENE 8.1 mph - N/A   Overcast
7:56 AM 36.0 °F - 30.0 °F 79% 29.77 in 10.0 mi Calm Calm - N/A   Overcast
8:56 AM 37.0 °F 33.3 °F 30.9 °F 79% 29.76 in 10.0 mi NNE 4.6 mph - 0.00 in Rain Light Rain
9:56 AM 37.0 °F 31.6 °F 30.9 °F 79% 29.74 in 10.0 mi SSE 6.9 mph - 0.00 in   Overcast
10:56 AM 39.0 °F - 32.0 °F 76% 29.70 in 6.0 mi Calm Calm - 0.01 in Rain Light Rain
11:56 AM 37.9 °F 30.9 °F 32.0 °F 79% 29.66 in 10.0 mi East 10.4 mph - 0.00 in   Overcast
12:30 PM 33.8 °F 21.0 °F 28.4 °F 81% 29.64 in 1.8 mi NNW 25.3 mph 31.1 mph 0.01 in Snow Light Snow
12:33 PM 33.8 °F 21.3 °F 28.4 °F 81% 29.65 in 1.2 mi NNW 24.2 mph - 0.01 in Snow Light Snow
12:48 PM 32.0 °F 19.2 °F 26.6 °F 80% 29.68 in 2.0 mi North 23.0 mph 29.9 mph 0.01 in Snow Light Snow
12:56 PM 33.1 °F 21.5 °F 26.1 °F 75% 29.74 in 2.0 mi NNW 19.6 mph - 0.01 in Snow Light Snow
1:07 PM 32.0 °F 18.6 °F 26.6 °F 80% 29.70 in 1.2 mi North 25.3 mph 29.9 mph 0.00 in Snow Light Snow
1:20 PM 30.2 °F 18.5 °F 26.6 °F 86% 29.71 in 0.8 mi NNW 17.3 mph - 0.00 in Snow Light Snow
1:38 PM 30.2 °F 19.3 °F 26.6 °F 86% 29.73 in 1.0 mi NW 15.0 mph - N/A Snow Light Snow
1:56 PM 30.9 °F 19.1 °F 23.0 °F 72% 29.80 in 1.0 mi NW 18.4 mph 27.6 mph 0.00 in Snow Light Snow
2:02 PM 30.2 °F 20.8 °F 26.6 °F 86% 29.75 in 2.0 mi North 11.5 mph 24.2 mph 0.00 in Snow Light Snow
2:07 PM 30.2 °F 19.8 °F 26.6 °F 86% 29.75 in 3.0 mi NNE 13.8 mph - 0.00 in Snow Light Snow
2:21 PM 30.2 °F 21.3 °F 24.8 °F 80% 29.75 in 8.0 mi NE 10.4 mph - 0.00 in Snow Light Snow
2:56 PM 30.0 °F 21.7 °F 24.1 °F 79% 29.83 in 10.0 mi South 9.2 mph - 0.00 in   Overcast
3:56 PM 35.1 °F 23.0 °F 9.0 °F 34% 29.83 in 10.0 mi WNW 24.2 mph 35.7 mph N/A   Overcast
4:56 PM 34.0 °F 22.4 °F 9.0 °F 35% 29.84 in 10.0 mi West 20.7 mph 26.5 mph N/A   Partly Cloudy
5:56 PM 32.0 °F 22.5 °F 9.0 °F 38% 29.88 in 10.0 mi West 12.7 mph - N/A   Clear
6:56 PM 28.9 °F 17.7 °F 10.0 °F 45% 29.93 in 10.0 mi WNW 15.0 mph 21.9 mph N/A   Clear
7:56 PM 30.0 °F 17.5 °F 12.0 °F 47% 29.96 in 10.0 mi WNW 19.6 mph 28.8 mph N/A   Mostly Cloudy
8:56 PM 30.0 °F 16.0 °F 12.9 °F 49% 29.97 in 10.0 mi WNW 25.3 mph 33.4 mph N/A   Overcast
9:56 PM 28.0 °F 13.6 °F 18.0 °F 66% 30.01 in 8.0 mi NNW 24.2 mph 29.9 mph 0.00 in Snow Light Snow
10:56 PM 24.1 °F 10.6 °F 16.0 °F 71% 30.06 in 10.0 mi NW 17.3 mph - 0.00 in   Overcast
11:56 PM 23.0 °F 12.4 °F 15.1 °F 72% 30.10 in 10.0 mi NW 10.4 mph - N/A   Overcast